Oakland, MD

3:34 PM EDT on August 20, 2017 (GMT -0400)
Oakland

Weather History for K2G4 - September, 2013

Change the Weather History Date:

Saturday, September 14, 2013

  Actual Average (KMGW) Record (KMGW)
Temperature  
Mean Temperature 48 °F -  
Max Temperature 55 °F 77 °F 95 °F (1998)
Min Temperature 41 °F 56 °F 34 °F (1964)
Degree Days  
Heating Degree Days 17    
Moisture  
Dew Point 43 °F    
Average Humidity 81    
Maximum Humidity 100    
Minimum Humidity 63    
Precipitation  
Precipitation 0.00 in - - ()
Sea Level Pressure  
Sea Level Pressure 30.11 in    
Wind  
Wind Speed 4 mph (NW)    
Max Wind Speed 8 mph    
Max Gust Speed -    
Visibility 9 miles    
Events      
Averages and records for this station are not official NWS values.
T = Trace of Precipitation, MM = Missing Value Source: NWS Daily Summary

Daily Weather History Graph

Daily Weather History Graph

Search for Another Location

Airport or City:

Trip Planner

Search our weather history database for the weather conditions in past years. The results will help you decide how hot, cold, wet, or windy it might be!

Date:

Astronomy

Sep. 14, 2013 Rise Set
Actual Time 6:57 AM EDT 7:27 PM EDT
Civil Twilight 6:30 AM EDT 7:54 PM EDT
Nautical Twilight 5:58 AM EDT 8:25 PM EDT
Astronomical Twilight 5:26 AM EDT 8:58 PM EDT
Moon 4:06 PM EDT (9/14) 1:28 AM EDT (9/14)
Length of Visible Light 13h 23m
Length of Day
12h 29m
Waxing Gibbous, 72% of the Moon is Illuminated
Sep 14
Waxing Gibbous
Sep 19
Full
Sep 26
Last Quarter
Oct 4
New
Oct 11
First Quarter

Hourly Weather History & Observations

Time (EDT) Temp. Windchill Dew Point Humidity Pressure Visibility Wind Dir Wind Speed Gust Speed Precip Events Conditions
12:10 AM 42.8 °F 40.1 °F 42.8 °F 100% 30.02 in 10.0 mi NW 4.6 mph - N/A   Overcast
12:30 AM 42.8 °F 40.1 °F 42.8 °F 100% 30.03 in 10.0 mi NW 4.6 mph - N/A   Scattered Clouds
12:50 AM 42.8 °F 40.1 °F - N/A% 30.03 in 10.0 mi NNW 4.6 mph - N/A   Mostly Cloudy
1:10 AM 42.8 °F 41.1 °F 42.8 °F 100% 30.03 in 10.0 mi NW 3.5 mph - N/A   Mostly Cloudy
1:30 AM 42.8 °F 41.1 °F - N/A% 30.03 in 10.0 mi NNW 3.5 mph - N/A   Overcast
1:50 AM 42.8 °F 41.1 °F - N/A% 30.04 in 10.0 mi NW 3.5 mph - N/A   Overcast
2:10 AM 42.8 °F 40.1 °F - N/A% 30.04 in 10.0 mi NW 4.6 mph - N/A   Overcast
2:30 AM 42.8 °F 39.3 °F - N/A% 30.04 in 10.0 mi NW 5.8 mph - N/A   Overcast
2:50 AM 42.8 °F 40.1 °F - N/A% 30.04 in 10.0 mi NW 4.6 mph - N/A   Overcast
3:10 AM 42.8 °F 40.1 °F - N/A% 30.04 in 10.0 mi NW 4.6 mph - N/A   Overcast
3:30 AM 42.8 °F 41.1 °F - N/A% 30.04 in 7.0 mi NW 3.5 mph - N/A   Overcast
3:50 AM 42.8 °F 40.1 °F - N/A% 30.04 in 7.0 mi NNW 4.6 mph - N/A   Overcast
4:10 AM 42.8 °F 41.1 °F - N/A% 30.04 in 4.0 mi NW 3.5 mph - N/A   Haze
4:30 AM 42.8 °F - - N/A% 30.04 in 1.2 mi Calm Calm - N/A   Overcast
4:50 AM 42.8 °F 41.1 °F - N/A% 30.04 in 2.0 mi NNW 3.5 mph - N/A   Overcast
5:10 AM 42.8 °F 41.1 °F - N/A% 30.04 in 1.8 mi NW 3.5 mph - N/A   Overcast
5:30 AM 42.8 °F 41.1 °F - N/A% 30.04 in 1.0 mi NNW 3.5 mph - N/A   Overcast
5:50 AM 42.8 °F 41.1 °F - N/A% 30.05 in 3.0 mi NW 3.5 mph - N/A   Overcast
6:10 AM 41.0 °F 38.0 °F - N/A% 30.05 in 4.0 mi NW 4.6 mph - N/A   Haze
6:30 AM 42.8 °F 40.1 °F - N/A% 30.05 in 7.0 mi NW 4.6 mph - N/A   Overcast
6:50 AM 41.0 °F 38.0 °F - N/A% 30.06 in 7.0 mi NW 4.6 mph - N/A   Overcast
7:10 AM 41.0 °F 38.0 °F - N/A% 30.07 in 10.0 mi NNW 4.6 mph - N/A   Overcast
7:30 AM 42.8 °F 39.3 °F - N/A% 30.08 in 7.0 mi NW 5.8 mph - N/A   Overcast
7:50 AM 42.8 °F 39.3 °F - N/A% 30.09 in 10.0 mi NW 5.8 mph - N/A   Overcast
8:10 AM 42.8 °F 40.1 °F - N/A% 30.10 in 10.0 mi NNW 4.6 mph - N/A   Overcast
8:30 AM 42.8 °F 41.1 °F - N/A% 30.10 in 10.0 mi NW 3.5 mph - N/A   Overcast
8:50 AM 42.8 °F 41.1 °F - N/A% 30.11 in 10.0 mi WNW 3.5 mph - N/A   Overcast
9:10 AM 42.8 °F 38.6 °F 42.8 °F 100% 30.11 in 10.0 mi NNW 6.9 mph - N/A   Overcast
9:30 AM 44.6 °F 42.2 °F 44.6 °F 100% 30.12 in 10.0 mi NW 4.6 mph - N/A   Overcast
9:50 AM 44.6 °F 42.2 °F 44.6 °F 100% 30.12 in 10.0 mi NNW 4.6 mph - N/A   Overcast
10:10 AM 44.6 °F 42.2 °F 44.6 °F 100% 30.12 in 10.0 mi NW 4.6 mph - N/A   Overcast
10:30 AM 46.4 °F 43.5 °F 41.0 °F 81% 30.13 in 10.0 mi NW 5.8 mph - N/A   Overcast
10:50 AM 44.6 °F 43.1 °F 42.8 °F 93% 30.14 in 10.0 mi NW 3.5 mph - N/A   Overcast
11:10 AM 44.6 °F 43.1 °F 42.8 °F 93% 30.14 in 10.0 mi NW 3.5 mph - N/A   Overcast
11:30 AM 44.6 °F 41.4 °F 42.8 °F 93% 30.15 in 10.0 mi NNW 5.8 mph - N/A   Overcast
11:50 AM 46.4 °F 44.3 °F 42.8 °F 87% 30.15 in 10.0 mi NNW 4.6 mph - N/A   Overcast
12:10 PM 46.4 °F 43.5 °F 41.0 °F 81% 30.15 in 10.0 mi NW 5.8 mph - N/A   Overcast
12:30 PM 46.4 °F 43.5 °F 42.8 °F 87% 30.15 in 10.0 mi WNW 5.8 mph - N/A   Overcast
12:50 PM 48.2 °F - 42.8 °F 82% 30.15 in 10.0 mi WNW 5.8 mph - N/A   Overcast
1:10 PM 50.0 °F - 42.8 °F 76% 30.14 in 10.0 mi West 6.9 mph - N/A   Overcast
1:30 PM 51.8 °F - 41.0 °F 67% 30.13 in 10.0 mi WNW 5.8 mph - N/A   Scattered Clouds
1:50 PM 51.8 °F - 41.0 °F 67% 30.13 in 10.0 mi WNW 3.5 mph - N/A   Scattered Clouds
2:10 PM 53.6 °F - 42.8 °F 67% 30.13 in 10.0 mi West 8.1 mph - N/A   Mostly Cloudy
2:30 PM 53.6 °F - 42.8 °F 67% 30.13 in 10.0 mi WNW 5.8 mph - N/A   Scattered Clouds
2:50 PM 53.6 °F - 42.8 °F 67% 30.13 in 10.0 mi West 6.9 mph - N/A   Clear
3:10 PM 53.6 °F - 42.8 °F 67% 30.13 in 10.0 mi WNW 6.9 mph - N/A   Scattered Clouds
3:30 PM 53.6 °F - 42.8 °F 67% 30.13 in 10.0 mi NW 8.1 mph - N/A   Clear
3:50 PM 53.6 °F - 42.8 °F 67% 30.13 in 10.0 mi NW 4.6 mph - N/A   Clear
4:10 PM 53.6 °F - 42.8 °F 67% 30.13 in 10.0 mi WNW 8.1 mph - N/A   Clear
4:30 PM 55.4 °F - 42.8 °F 63% 30.13 in 10.0 mi WNW 5.8 mph - N/A   Clear
4:50 PM 55.4 °F - 44.6 °F 67% 30.13 in 10.0 mi West 5.8 mph - N/A   Clear
5:10 PM 55.4 °F - 42.8 °F 63% 30.13 in 10.0 mi NNW 4.6 mph - N/A   Clear
5:30 PM 55.4 °F - 42.8 °F 63% 30.14 in 10.0 mi NW 8.1 mph - N/A   Clear
5:50 PM 53.6 °F - 42.8 °F 67% 30.15 in 10.0 mi West 3.5 mph - N/A   Clear
6:10 PM 53.6 °F - 42.8 °F 67% 30.15 in 10.0 mi WNW 3.5 mph - N/A   Clear
6:30 PM 53.6 °F - 42.8 °F 67% 30.16 in 10.0 mi NW 5.8 mph - N/A   Clear
6:50 PM 51.8 °F - 42.8 °F 71% 30.16 in 10.0 mi WNW 3.5 mph - N/A   Clear
7:10 PM 50.0 °F - 44.6 °F 82% 30.16 in 10.0 mi Calm Calm - N/A   Clear
7:30 PM 50.0 °F - 44.6 °F 82% 30.16 in 10.0 mi Calm Calm - N/A   Clear
7:50 PM 48.2 °F - 44.6 °F 87% 30.17 in 10.0 mi Calm Calm - N/A   Clear
8:10 PM 48.2 °F - 44.6 °F 87% 30.17 in 10.0 mi WNW 3.5 mph - N/A   Clear
8:30 PM 48.2 °F - 44.6 °F 87% 30.17 in 10.0 mi WNW 3.5 mph - N/A   Clear
8:50 PM 46.4 °F 45.2 °F 42.8 °F 87% 30.18 in 10.0 mi NW 3.5 mph - N/A   Clear
9:10 PM 48.2 °F - 42.8 °F 82% 30.19 in 10.0 mi NW 3.5 mph - N/A   Clear
9:30 PM 48.2 °F - 42.8 °F 82% 30.19 in 10.0 mi Calm Calm - N/A   Clear
9:50 PM 48.2 °F - 42.8 °F 82% 30.19 in 10.0 mi Calm Calm - N/A   Clear
10:10 PM 46.4 °F - 42.8 °F 87% 30.19 in 10.0 mi Calm Calm - N/A   Clear
10:30 PM 46.4 °F - 42.8 °F 87% 30.19 in 10.0 mi Calm Calm - N/A   Clear
11:30 PM 46.4 °F - 42.8 °F 87% 30.21 in 10.0 mi Calm Calm - N/A   Clear
11:50 PM 46.4 °F 45.2 °F 42.8 °F 87% 30.20 in 10.0 mi WNW 3.5 mph - N/A   Clear